Date,TemperatureHighF,TemperatureAvgF,TemperatureLowF,DewpointHighF,DewpointAvgF,DewpointLowF,HumidityHigh,HumidityAvg,HumidityLow,PressureMaxIn,PressureMinIn,WindSpeedMaxMPH,WindSpeedAvgMPH,GustSpeedMaxMPH,PrecipitationSumIn
2013-1-1,64.4,54.2,46.6,53.8,48.3,42.2,94,81,66,30.46,30.27,3,0,4,0.00
2013-1-2,61.5,55.2,52.0,54.5,52.0,49.1,97,90,72,30.44,30.27,4,0,5,0.04
2013-1-3,52.0,48.1,43.0,49.1,44.5,39.4,96,87,73,30.44,30.27,4,0,6,0.06
2013-1-4,57.7,43.0,32.5,45.7,35.5,31.5,98,78,43,30.50,30.26,4,0,8,0.00
2013-1-5,57.4,41.6,26.2,37.9,28.7,23.2,91,65,29,30.56,30.26,3,0,5,0.00
2013-1-6,50.9,47.0,42.6,45.7,40.2,33.7,90,77,59,30.50,30.27,4,1,6,0.01
2013-1-7,59.9,42.5,30.7,39.0,33.2,29.2,95,73,37,30.53,30.26,4,0,10,0.00
2013-1-8,60.1,47.4,33.3,45.7,39.3,30.5,91,74,58,30.56,30.26,2,0,6,0.00
2013-1-9,70.9,56.9,44.1,56.4,49.8,40.8,93,78,59,30.47,30.27,2,0,4,0.00
2013-1-10,78.6,61.9,48.9,58.6,53.2,47.8,97,76,41,30.42,30.19,4,1,8,0.00
2013-1-11,76.6,65.0,58.8,64.9,61.4,57.4,99,89,65,30.31,30.17,4,1,8,0.00
2013-1-12,81.3,67.7,57.0,65.1,59.7,56.2,97,78,47,30.26,30.09,6,1,10,0.00
2013-1-13,79.2,67.5,60.3,63.5,60.5,57.9,96,79,55,30.34,30.14,8,1,12,0.00
2013-1-14,81.1,69.2,61.2,63.1,60.1,57.0,92,74,52,30.33,30.11,5,2,11,0.00
2013-1-15,78.1,68.3,59.7,60.7,59.3,58.0,94,75,53,30.32,30.15,6,1,9,0.00
2013-1-16,76.1,67.6,62.6,66.1,61.5,58.6,96,81,64,30.30,30.15,6,1,10,0.02
2013-1-17,72.0,57.7,43.3,64.4,54.2,37.0,98,88,73,30.37,30.20,11,3,18,0.50
2013-1-18,60.4,43.8,32.0,39.2,30.3,21.5,96,65,24,30.55,30.25,4,1,9,0.00
2013-1-19,64.4,44.5,29.8,39.3,31.9,25.3,86,65,34,30.55,30.26,5,1,8,0.00
2013-1-20,69.1,51.1,38.7,39.6,36.5,30.7,92,62,28,30.52,30.25,6,1,10,0.00
2013-1-21,64.9,49.4,33.1,39.6,31.2,22.6,92,56,21,30.47,30.26,8,2,12,0.00
2013-1-22,52.9,42.9,34.9,22.8,17.9,12.7,52,37,21,30.50,30.26,8,3,14,0.00
2013-1-23,57.2,42.0,27.1,32.6,22.2,14.0,66,46,30,30.56,30.26,8,2,14,0.00
2013-1-24,64.8,51.6,34.3,42.7,29.1,6.9,76,47,14,30.51,30.26,11,3,18,0.00
2013-1-25,38.7,33.0,27.3,24.8,15.6,7.9,57,49,33,30.57,30.27,3,1,6,0.00
2013-1-26,66.6,46.7,34.3,38.2,31.7,24.5,80,58,30,30.56,30.26,4,1,6,0.00
2013-1-27,57.2,44.1,32.4,32.3,28.3,24.5,82,56,32,30.53,30.27,5,1,10,0.00
2013-1-28,62.4,47.6,39.7,49.7,39.8,29.5,93,75,57,30.52,30.27,3,0,4,0.00
2013-1-29,79.3,59.7,42.1,61.6,52.9,40.5,96,80,52,30.47,30.20,5,1,12,0.00
2013-1-30,79.0,67.8,51.4,64.7,60.3,46.5,93,79,51,30.27,30.11,15,4,23,0.37
2013-1-31,54.5,46.4,38.7,47.0,27.5,17.0,83,50,23,30.43,30.19,11,5,24,0.01
2013-2-1,52.9,43.0,28.2,28.9,17.3,-4.5,63,40,10,30.54,30.26,10,3,16,0.00
2013-2-2,59.4,40.8,24.8,35.7,16.5,2.1,75,43,13,30.61,30.25,10,1,15,0.00
2013-2-3,62.6,48.8,38.3,38.3,31.3,22.0,84,55,24,30.50,30.26,13,3,21,0.00
2013-2-4,51.6,41.4,30.6,32.8,27.7,23.5,86,61,34,30.53,30.26,4,0,4,0.00
2013-2-5,68.0,51.7,38.5,47.2,39.5,30.1,89,65,42,30.54,30.26,7,1,12,0.00
2013-2-6,74.5,55.6,41.4,52.1,39.2,19.3,96,62,14,30.45,30.25,5,1,8,0.00
2013-2-7,52.3,48.3,45.0,47.7,44.4,36.0,97,87,54,30.46,30.26,4,1,11,2.29
2013-2-8,63.3,49.8,42.6,49.6,45.0,41.3,97,85,61,30.49,30.26,7,2,11,0.01
2013-2-9,68.7,47.4,29.7,42.8,30.7,13.5,95,61,13,30.49,30.27,4,0,6,0.00
2013-2-10,66.7,52.9,37.9,54.4,41.8,30.4,94,67,45,30.50,30.27,8,2,14,0.20
2013-2-11,68.9,59.8,49.6,63.0,58.1,48.5,97,94,80,30.39,30.27,7,2,13,0.84
2013-2-12,65.5,55.5,48.6,54.0,49.3,42.4,98,82,43,30.40,30.28,4,1,6,0.48
2013-2-13,58.5,51.0,46.6,54.4,48.0,40.5,98,90,71,30.44,30.27,10,2,16,0.08
2013-2-14,53.6,44.2,35.4,41.2,37.7,33.6,94,79,56,30.50,30.26,4,1,5,0.00
2013-2-15,67.1,47.3,31.3,45.4,35.3,27.8,98,70,25,30.54,30.26,5,1,8,0.00
2013-2-16,50.2,40.6,33.3,39.1,29.7,13.1,94,69,30,30.50,30.26,11,2,18,0.19
2013-2-17,49.1,35.9,27.3,20.7,11.9,1.1,69,40,14,30.61,30.26,8,3,15,0.00
2013-2-18,60.1,42.2,25.3,29.0,21.2,13.7,82,49,18,30.61,30.26,4,1,8,0.00
2013-2-19,55.6,46.4,39.7,49.8,40.4,27.2,96,81,52,30.54,30.27,8,2,10,0.20
2013-2-20,59.7,45.6,28.0,33.8,24.8,13.8,85,48,17,30.54,30.28,5,1,8,0.00
2013-2-21,69.4,50.4,31.8,36.8,28.0,18.8,82,47,18,30.53,30.26,4,1,8,0.00
2013-2-22,52.5,43.6,39.7,41.8,39.1,32.1,97,86,50,30.45,30.27,4,1,7,0.60
2013-2-23,46.4,43.1,39.2,46.0,42.4,38.4,99,97,96,30.53,30.26,7,1,11,0.46
2013-2-24,72.7,53.5,44.6,50.4,42.5,28.4,99,73,20,30.49,30.25,5,2,8,0.01
2013-2-25,48.9,45.5,39.6,43.2,36.0,30.4,91,70,51,30.45,30.27,4,1,8,0.00
2013-2-26,58.8,46.2,37.9,55.3,44.9,36.4,99,95,86,30.54,30.27,6,2,8,0.70
2013-2-27,63.9,50.6,40.5,44.8,38.8,35.4,94,66,38,30.49,30.26,8,3,13,0.00
2013-2-28,56.3,47.7,39.4,41.0,33.0,27.4,77,58,39,30.47,30.26,11,4,20,0.00
2013-3-1,56.3,43.3,30.4,32.4,28.4,25.6,83,58,34,30.55,30.26,8,2,11,0.00
2013-3-2,44.8,38.1,31.6,39.9,31.9,27.1,92,78,65,30.56,30.26,8,2,12,0.13
2013-3-3,50.7,37.7,27.3,28.8,24.7,19.9,91,62,31,30.58,30.26,8,2,11,0.00
2013-3-4,61.3,41.7,23.9,31.0,20.7,8.7,86,50,13,30.60,30.26,6,1,9,0.00
2013-3-5,69.1,53.9,38.7,56.9,42.1,30.9,94,65,43,30.53,30.26,9,2,18,0.08
2013-3-6,52.5,42.7,35.1,38.1,25.6,20.2,73,51,36,30.47,30.26,14,6,23,0.00
2013-3-7,62.6,43.3,26.6,33.2,28.7,24.1,90,61,26,30.58,30.26,6,1,10,0.00
2013-3-8,65.7,47.4,33.6,33.7,24.3,9.6,80,47,12,30.51,30.27,8,1,11,0.00
2013-3-9,70.2,51.0,34.5,37.0,29.4,23.2,78,47,18,30.53,30.26,4,1,7,0.00
2013-3-10,72.0,56.3,38.8,48.2,39.4,33.7,86,58,26,30.45,30.22,6,1,11,0.00
2013-3-11,72.0,60.0,46.8,55.6,47.6,37.1,77,64,48,30.40,30.22,8,2,14,0.00
2013-3-12,70.7,61.4,54.0,58.9,49.4,35.4,97,69,33,30.31,30.18,6,3,11,0.31
2013-3-13,63.5,51.6,37.4,35.9,26.8,15.2,83,43,16,30.45,30.25,10,4,19,0.00
2013-3-14,59.0,43.3,28.8,28.3,20.6,12.9,77,45,17,30.53,30.26,6,1,11,0.00
2013-3-15,74.1,54.0,32.4,40.1,29.8,14.8,76,43,21,30.53,30.26,8,1,13,0.00
2013-3-16,81.0,66.6,53.2,44.5,39.9,29.8,67,41,16,30.39,30.16,11,3,18,0.00
2013-3-17,76.3,65.9,55.8,54.3,49.6,43.6,79,57,34,30.30,30.20,8,2,12,0.00
2013-3-18,68.4,59.1,46.9,59.8,53.4,45.6,97,82,71,30.36,30.24,8,1,14,0.67
2013-3-19,72.9,57.8,49.1,55.4,39.9,12.3,99,64,10,30.46,30.35,8,2,13,0.02
2013-3-20,63.5,53.0,43.3,37.2,23.0,8.7,65,35,13,30.55,30.40,6,1,10,0.00
2013-3-21,56.5,46.1,37.0,27.4,14.7,-4.0,56,32,10,30.71,30.54,11,3,14,0.00
2013-3-22,51.1,42.5,33.3,32.2,21.5,15.7,63,44,30,30.84,30.71,4,1,6,0.00
2013-3-23,55.8,47.5,43.5,52.7,42.2,31.9,97,82,61,30.84,30.78,6,1,10,0.31
2013-3-24,49.6,47.4,44.4,48.8,46.2,43.3,98,95,91,30.80,30.78,4,1,8,0.78
2013-3-25,50.4,44.6,38.5,45.2,28.2,20.8,97,55,33,30.85,30.78,14,6,21,0.01
2013-3-26,50.5,40.8,31.8,27.5,24.6,22.1,73,53,35,30.85,30.77,9,3,17,0.00
2013-3-27,59.5,42.6,27.3,29.5,24.7,19.3,88,55,21,30.85,30.75,8,1,12,0.00
2013-3-28,62.8,46.5,28.9,29.8,24.4,14.5,83,48,15,30.85,30.70,9,1,14,0.00
2013-3-29,69.8,53.1,37.0,35.2,26.2,14.5,73,40,13,30.84,30.65,5,1,10,0.00
2013-3-30,74.8,61.9,50.5,48.4,42.6,33.1,75,52,31,30.69,30.49,8,1,11,0.00
2013-3-31,77.7,65.5,58.3,60.1,53.8,47.1,87,67,40,30.51,30.38,9,2,15,0.01
2013-4-1,77.5,64.7,53.8,61.8,53.4,34.4,98,72,24,30.41,30.30,7,1,11,0.43
2013-4-2,75.6,59.2,43.7,45.8,40.1,27.7,90,56,19,30.46,30.33,8,1,13,0.00
2013-4-3,66.4,57.3,48.0,44.6,34.4,28.5,73,44,26,30.48,30.37,4,1,10,0.01
2013-4-4,53.1,45.4,41.4,44.3,42.2,37.6,96,89,56,30.69,30.46,4,1,12,0.72
2013-4-5,63.0,48.7,38.5,48.3,42.5,37.3,96,81,57,30.78,30.68,4,1,7,0.00
2013-4-6,78.1,58.0,37.4,48.1,36.1,23.6,97,55,14,30.78,30.55,5,1,11,0.00
2013-4-7,78.8,63.0,45.7,54.3,48.5,41.0,95,63,34,30.62,30.42,6,2,9,0.00
2013-4-8,82.6,68.5,53.2,58.2,53.6,50.4,93,63,34,30.45,30.27,4,1,8,0.00
2013-4-9,87.6,71.7,58.1,62.6,57.7,53.5,95,66,34,30.33,30.14,4,1,8,0.00
2013-4-10,87.3,73.3,61.2,61.5,58.9,55.0,94,65,35,30.22,30.06,4,1,10,0.00
2013-4-11,82.9,71.4,63.0,68.6,65.0,60.8,97,82,56,30.15,30.06,8,2,12,0.05
2013-4-12,81.3,72.2,62.8,69.3,59.9,40.0,97,70,24,30.24,30.03,7,2,14,0.19
2013-4-13,82.4,64.6,46.2,47.3,40.8,30.4,86,47,16,30.33,30.11,4,1,8,0.00
2013-4-14,72.0,60.9,50.2,60.4,52.2,45.2,96,75,51,30.49,30.26,6,1,14,0.21
2013-4-15,77.2,66.4,60.4,63.1,60.4,58.5,95,82,60,30.40,30.17,4,0,8,0.00
2013-4-16,87.1,71.0,59.7,63.8,60.0,56.8,98,72,37,30.33,30.06,3,0,5,0.00
2013-4-17,89.2,72.8,57.0,64.1,59.7,55.3,96,67,36,30.28,30.00,4,1,6,0.00
2013-4-18,86.4,72.6,62.4,66.1,61.7,57.2,94,71,44,30.20,30.06,5,1,9,0.00
2013-4-19,85.3,69.9,50.7,69.1,64.4,48.6,96,84,53,30.12,30.06,8,2,14,0.40
2013-4-20,71.6,56.0,45.1,49.4,41.8,32.8,94,65,26,30.35,30.12,5,1,8,0.00
2013-4-21,72.9,57.4,41.2,46.4,41.0,36.5,95,60,27,30.51,30.35,6,1,10,0.00
2013-4-22,73.4,59.1,50.2,44.8,35.9,28.0,72,45,20,30.51,30.34,5,1,10,0.00
2013-4-23,80.4,61.3,47.1,53.2,46.0,35.9,84,60,33,30.50,30.25,4,1,6,0.00
2013-4-24,81.0,66.7,54.9,59.3,55.7,52.9,94,71,42,30.37,30.13,5,1,9,0.00
2013-4-25,83.1,69.8,55.2,61.6,53.7,35.1,87,61,20,30.25,30.05,4,1,8,0.00
2013-4-26,81.3,64.0,49.5,56.6,48.4,38.2,88,59,33,30.47,30.19,5,1,8,0.00
2013-4-27,72.0,61.8,53.6,58.0,53.4,47.4,94,75,57,30.44,30.28,2,0,5,0.19
2013-4-28,76.1,63.3,57.2,65.7,59.2,49.9,98,87,63,30.46,30.24,6,1,9,1.29
2013-4-29,73.8,65.5,60.6,68.0,63.0,59.5,99,92,72,30.32,30.16,2,0,5,0.59
2013-4-30,81.9,65.9,56.8,64.3,60.9,56.3,99,85,52,30.29,30.11,4,0,8,0.00
2013-5-1,71.6,63.9,58.6,61.4,57.8,55.4,95,81,61,30.24,30.15,2,1,11,0.00
2013-5-2,70.3,65.3,61.5,61.2,59.5,56.8,93,82,69,30.27,30.17,3,1,8,0.00
2013-5-3,67.5,61.4,57.0,60.9,57.3,54.4,95,87,74,30.29,30.22,3,1,8,0.04
2013-5-4,61.2,58.5,53.8,58.2,53.2,46.9,97,83,68,30.36,30.26,4,1,11,0.19
2013-5-5,75.0,61.3,55.4,65.8,58.7,53.7,99,92,63,30.39,30.24,4,1,9,0.89
2013-5-6,72.5,59.7,50.4,55.8,49.6,44.9,98,73,39,30.38,30.23,6,1,8,0.00
2013-5-7,73.2,60.7,50.5,56.3,50.5,47.3,94,72,41,30.42,30.24,6,1,9,0.01
2013-5-8,82.0,65.9,51.1,57.1,52.3,49.0,94,66,35,30.41,30.14,4,1,10,0.00
2013-5-9,89.1,71.2,56.1,60.9,56.6,48.2,93,64,26,30.29,30.13,4,0,6,0.00
2013-5-10,88.2,73.7,60.1,62.6,59.3,55.4,93,65,33,30.22,30.07,4,1,11,0.00
2013-5-11,82.9,73.6,63.7,64.9,62.5,59.3,86,69,51,30.14,30.05,7,1,8,0.00
2013-5-12,81.0,70.8,59.4,64.2,50.9,31.2,89,55,24,30.12,30.04,7,1,11,0.00
2013-5-13,74.8,60.9,45.9,44.3,37.5,26.5,83,47,17,30.31,30.11,5,1,8,0.00
2013-5-14,79.7,63.6,45.7,46.7,38.1,27.2,78,44,16,30.51,30.23,4,1,7,0.00
2013-5-15,91.9,74.8,58.1,58.2,52.8,44.7,70,49,29,30.39,29.93,5,1,8,0.00
2013-5-16,84.6,74.6,64.8,63.8,60.3,57.3,85,62,45,30.21,29.93,4,0,7,0.00
2013-5-17,90.7,75.1,63.3,65.1,61.2,52.8,90,66,29,30.40,30.15,4,0,6,0.00
2013-5-18,80.6,73.3,67.1,66.8,64.6,59.5,90,75,58,30.42,30.15,3,1,7,0.00
2013-5-19,82.2,73.0,68.2,69.1,67.2,65.4,94,83,62,30.42,30.15,3,1,5,0.00
2013-5-20,87.1,76.4,69.1,69.7,68.0,65.2,96,77,51,30.42,30.15,3,0,6,0.00
2013-5-21,91.0,73.1,66.0,72.2,68.8,65.3,98,88,48,30.42,30.14,3,0,5,0.01
2013-5-22,88.3,71.3,64.2,71.4,66.3,63.9,99,87,47,30.42,30.16,4,0,6,0.00
2013-5-23,86.5,75.4,68.2,75.3,66.4,60.9,96,76,50,30.42,30.14,4,1,8,0.00
2013-5-24,87.3,72.7,59.7,60.9,47.6,24.0,87,47,12,30.43,30.14,7,1,14,0.00
2013-5-25,83.3,65.9,48.0,50.5,41.9,28.4,84,48,14,30.42,30.16,4,1,5,0.00
2013-5-26,88.5,70.3,55.8,54.8,50.0,40.8,87,54,20,30.42,30.14,3,0,6,0.00
2013-5-27,91.8,75.0,59.7,62.9,56.6,52.1,86,56,27,30.42,30.14,5,1,11,0.00
2013-5-28,89.2,75.3,62.6,66.3,61.5,55.8,93,65,39,30.42,30.14,5,1,11,0.00
2013-5-29,90.3,75.8,61.3,67.4,62.0,59.1,96,66,36,30.42,30.14,4,1,6,0.00
2013-5-30,93.6,76.7,63.0,69.7,64.4,60.1,96,69,34,30.42,30.14,4,1,7,0.00
2013-5-31,93.2,79.0,69.1,71.1,67.7,61.7,97,72,37,30.42,30.14,4,1,10,0.01
2013-6-1,91.6,79.8,66.6,71.0,66.7,63.1,97,67,40,30.42,30.14,4,1,11,0.00
2013-6-2,93.4,83.4,72.0,74.1,69.3,64.5,96,66,40,30.35,29.84,4,1,6,0.58
2013-6-3,90.3,77.5,71.1,74.0,71.4,68.5,99,83,52,30.11,29.84,3,0,5,0.60
2013-6-4,94.1,77.0,68.5,75.7,70.4,67.6,99,83,45,30.12,29.84,3,0,5,0.11
2013-6-5,85.1,73.4,62.6,76.2,71.7,62.0,99,95,69,30.11,29.85,3,0,8,0.85
2013-6-6,79.2,72.4,70.0,73.7,70.8,68.2,99,95,77,30.11,29.86,4,0,7,0.90
2013-6-7,87.3,74.3,68.2,73.6,70.3,67.9,99,89,60,30.12,29.85,4,1,9,1.71
2013-6-8,89.1,76.1,69.3,70.6,68.8,67.2,99,80,51,30.11,29.83,4,0,6,0.01
2013-6-9,86.4,73.3,70.2,75.5,71.1,68.7,99,93,65,30.11,29.85,10,0,29,1.44
2013-6-10,82.6,73.9,70.3,75.5,72.6,69.7,99,96,77,30.11,29.85,4,1,7,1.68
2013-6-11,91.6,79.1,69.8,75.3,72.5,69.5,99,82,53,30.11,29.84,4,1,8,0.00
2013-6-12,99.7,83.7,71.6,75.3,73.3,70.4,99,74,43,30.11,29.83,3,0,5,0.00
2013-6-13,95.9,85.8,76.8,75.3,72.3,68.0,90,67,41,30.11,29.84,8,1,14,0.00
2013-6-14,92.3,79.3,69.8,71.9,62.8,53.9,94,61,30,30.12,29.84,3,1,6,0.00
2013-6-15,92.1,76.6,63.1,65.5,60.3,53.7,89,61,29,30.12,29.83,3,0,5,0.00
2013-6-16,91.4,78.0,65.8,69.6,64.8,59.8,89,66,41,30.12,29.84,4,1,8,0.00
2013-6-17,92.8,76.7,69.8,74.4,68.6,64.2,99,78,45,30.11,29.83,4,1,11,1.03
2013-6-18,87.4,75.6,69.4,76.5,71.8,67.3,99,89,68,30.11,29.84,5,1,11,0.21
2013-6-19,85.6,75.5,69.3,76.4,72.3,66.5,99,90,71,30.11,29.85,2,0,4,0.20
2013-6-20,89.1,76.4,67.3,69.2,65.8,61.5,97,73,42,30.11,29.83,4,1,8,0.01
2013-6-21,90.9,75.9,64.2,65.6,62.5,58.8,96,67,36,30.11,29.83,4,1,8,0.00
2013-6-22,91.4,77.4,65.3,73.8,67.3,61.0,91,73,46,30.12,29.84,4,0,5,0.00
2013-6-23,89.8,77.3,69.3,77.4,71.7,68.4,98,84,51,30.11,29.84,3,0,4,0.08
2013-6-24,92.3,77.1,71.1,75.6,72.2,68.4,99,86,51,30.11,29.84,4,0,9,0.04
2013-6-25,92.8,77.7,69.3,74.9,71.0,67.9,99,82,49,30.11,29.84,4,1,7,0.00
2013-6-26,91.8,75.8,70.3,76.7,72.4,68.7,99,90,57,30.11,29.83,4,0,8,0.60
2013-6-27,92.5,81.1,72.7,76.7,73.8,70.7,99,80,56,30.11,29.84,4,1,8,0.00
2013-6-28,95.5,81.7,71.1,76.0,72.1,67.2,97,75,46,30.12,29.84,4,1,10,0.00
2013-6-29,88.7,78.4,72.7,74.6,71.2,67.1,91,79,59,30.12,29.84,3,1,6,0.00
2013-6-30,89.6,76.9,70.2,76.9,72.7,69.3,98,88,59,30.12,29.84,4,1,11,0.09
2013-7-1,82.9,74.4,68.5,75.2,71.5,68.2,99,91,71,30.11,29.85,4,1,8,0.26
2013-7-2,81.7,75.7,72.3,74.5,72.1,70.8,96,89,74,30.11,29.85,5,1,9,0.00
2013-7-3,84.4,75.1,70.9,77.0,73.3,70.3,99,94,73,30.11,29.85,3,0,8,1.06
2013-7-4,90.3,78.9,71.8,76.4,74.3,71.5,99,87,57,30.11,29.83,6,1,17,0.39
2013-7-5,88.2,77.6,72.0,78.3,74.3,71.1,99,90,62,30.11,29.83,3,1,9,0.13
2013-7-6,88.9,77.9,71.6,76.5,73.8,71.2,99,88,60,30.11,29.83,5,1,11,0.07
2013-7-7,89.8,78.5,73.6,77.1,74.8,73.3,99,89,62,30.11,29.84,3,0,4,0.18
2013-7-8,92.7,79.0,72.7,76.8,73.8,71.7,99,85,54,30.11,29.83,3,0,6,0.02
2013-7-9,93.6,80.6,72.7,77.4,74.5,72.3,99,84,52,30.11,29.83,3,0,7,0.02
2013-7-10,88.5,78.0,72.1,75.6,73.6,71.5,99,87,60,30.11,29.83,4,1,8,0.63
2013-7-11,91.9,78.6,73.2,74.9,73.0,70.8,99,85,51,30.11,29.84,4,1,7,0.44
2013-7-12,84.2,75.8,70.9,75.9,72.5,66.7,99,90,75,30.11,29.84,3,0,8,0.30
2013-7-13,81.0,74.1,70.2,75.1,71.5,67.1,99,92,78,30.11,29.85,2,0,4,0.11
2013-7-14,83.5,75.0,70.9,76.2,73.4,70.5,99,95,76,30.11,29.83,7,1,12,0.77
2013-7-15,91.0,78.2,72.1,77.8,74.1,71.8,99,88,59,30.11,29.83,2,0,6,0.01
2013-7-16,95.4,80.5,70.7,76.9,71.9,68.1,99,78,43,30.11,29.83,3,0,5,0.00
2013-7-17,97.3,78.1,70.3,76.4,72.4,68.3,99,86,45,30.11,29.83,6,0,14,0.35
2013-7-18,94.1,80.0,68.9,76.0,72.6,68.6,99,81,51,30.11,29.75,2,0,5,0.00
2013-7-19,96.4,80.8,71.8,74.8,72.2,64.1,99,78,36,29.75,29.59,6,1,11,0.00
2013-7-20,88.5,79.5,73.9,74.8,72.9,71.8,95,81,60,29.63,29.54,3,1,6,0.00
2013-7-21,90.7,79.8,74.8,76.3,74.0,72.7,95,84,59,30.04,29.55,3,1,6,0.00
2013-7-22,90.0,79.1,71.8,74.3,72.7,71.1,98,82,56,30.11,29.84,4,1,9,0.00
2013-7-23,93.2,81.4,74.7,75.1,72.5,69.7,94,76,48,30.11,29.84,4,1,7,0.00
2013-7-24,96.4,79.4,71.6,76.9,72.6,69.1,98,81,45,30.12,29.83,4,0,8,0.00
2013-7-25,95.2,80.0,69.8,75.4,71.5,69.1,99,78,48,30.11,29.84,2,0,5,0.00
2013-7-26,91.8,79.2,71.6,78.8,72.2,67.7,95,80,50,30.11,29.84,3,0,5,0.18
2013-7-27,89.8,78.6,73.9,77.9,73.9,70.7,99,86,60,30.11,29.84,3,1,7,0.07
2013-7-28,93.4,80.4,71.1,75.5,71.2,68.0,99,77,45,30.11,29.84,4,0,6,0.00
2013-7-29,92.5,80.6,72.3,75.7,73.2,68.8,97,80,52,30.11,29.84,8,0,16,0.00
2013-7-30,92.8,80.4,70.9,76.8,73.5,70.5,99,81,50,30.11,29.83,3,0,6,0.00
2013-7-31,84.4,76.3,73.4,76.4,74.1,71.9,99,93,74,30.11,29.91,1,0,2,0.00
2013-8-1,89.6,77.9,72.1,78.1,73.6,71.8,99,88,60,30.12,29.84,4,1,8,0.14
2013-8-2,90.5,79.2,73.4,76.7,74.7,72.8,99,87,62,30.12,29.84,2,0,4,0.00
2013-8-3,93.2,81.1,72.5,78.4,73.4,68.8,99,80,47,30.12,29.84,3,0,5,0.00
2013-8-4,96.1,82.6,73.6,76.7,73.4,70.5,95,76,47,30.01,29.84,3,0,5,0.00
2013-8-5,90.0,80.8,74.7,74.8,70.9,66.8,95,73,51,30.00,29.84,4,1,8,0.00
2013-8-6,86.9,77.9,70.7,76.0,71.2,66.7,93,80,70,30.00,29.85,3,1,5,0.00
2013-8-7,90.7,79.8,72.1,73.2,71.6,68.7,98,78,49,30.00,29.84,3,0,6,0.00
2013-8-8,95.4,81.8,70.5,74.3,71.4,69.0,99,73,44,30.00,29.83,4,1,5,0.00
2013-8-9,93.9,82.1,75.9,79.3,76.1,73.7,98,83,54,30.00,29.85,4,1,8,0.00
2013-8-10,97.0,84.1,74.7,76.6,73.6,68.5,98,74,42,30.00,29.85,4,1,7,0.00
2013-8-11,96.1,84.1,74.3,75.9,73.1,68.9,95,72,43,30.00,29.84,6,1,9,0.00
2013-8-12,97.2,83.1,74.8,76.8,74.4,70.9,96,77,43,30.01,29.84,5,0,8,0.00
2013-8-13,95.7,83.4,74.7,76.2,73.7,71.0,95,75,47,30.01,29.85,4,1,8,0.00
2013-8-14,83.1,77.5,72.1,75.6,71.1,67.2,96,82,61,30.01,29.85,2,0,5,0.00
2013-8-15,72.1,66.6,63.3,69.7,65.7,61.3,99,97,88,30.01,29.85,3,0,7,0.81
2013-8-16,67.3,65.1,63.9,66.4,64.6,63.6,99,98,93,30.00,29.85,3,1,7,2.33
2013-8-17,69.4,66.9,64.2,69.1,66.5,63.9,99,99,95,29.91,29.80,2,0,6,0.21
2013-8-18,90.7,74.8,68.0,75.3,71.1,67.7,99,90,57,29.99,29.70,4,0,4,0.22
2013-8-19,83.1,74.5,70.0,78.2,73.1,69.7,99,96,82,30.00,29.84,3,0,5,0.54
2013-8-20,88.7,76.5,72.1,79.7,74.4,71.8,99,94,69,30.00,29.84,2,0,4,0.07
2013-8-21,92.8,78.7,71.1,77.6,73.3,70.0,99,85,56,30.00,29.83,2,0,4,0.00
2013-8-22,95.2,80.1,70.0,76.5,72.0,68.9,99,79,48,30.00,29.83,3,0,7,0.00
2013-8-23,93.7,79.9,71.1,76.2,73.0,70.8,99,81,50,30.00,29.83,4,1,8,0.00
2013-8-24,80.6,74.4,69.6,73.1,69.9,68.1,97,86,69,30.00,29.84,3,0,6,0.00
2013-8-25,74.5,66.7,63.7,68.4,64.4,62.7,97,93,67,30.01,29.91,2,0,4,0.00
2013-8-26,70.9,65.9,62.6,60.9,59.8,58.7,88,81,69,30.06,29.87,0,0,2,0.00
2013-8-27,90.9,73.5,58.1,71.4,64.3,57.1,97,76,46,30.07,29.90,3,0,4,0.00
2013-8-28,92.5,78.5,67.1,72.8,69.1,66.5,99,76,47,30.07,29.90,3,0,6,0.00
2013-8-29,96.6,81.6,71.1,79.5,73.0,68.9,95,77,47,30.07,29.90,3,0,6,0.00
2013-8-30,88.2,79.6,74.5,75.4,73.4,72.6,95,82,63,30.07,29.91,2,0,6,0.00
2013-8-31,92.1,80.3,72.1,78.1,74.5,71.5,99,84,56,30.07,29.91,3,0,7,0.04
2013-9-1,92.7,80.3,71.1,79.5,74.7,69.8,99,85,55,30.07,29.91,8,1,14,0.57
2013-9-2,92.3,79.6,70.7,77.5,73.8,70.4,99,84,59,30.07,29.88,3,1,4,0.01
2013-9-3,92.8,78.6,72.3,79.5,74.5,70.4,99,89,55,30.07,29.91,4,0,7,0.26
2013-9-4,95.7,80.2,69.8,78.0,72.5,69.5,99,80,44,30.07,29.90,3,0,4,0.00
2013-9-5,95.4,80.2,69.8,77.0,71.3,66.8,99,78,41,30.07,29.91,2,0,4,0.00
2013-9-6,91.8,77.4,67.8,70.0,67.9,62.8,99,76,40,30.07,29.90,3,0,5,0.00
2013-9-7,90.5,76.3,65.5,71.0,66.1,62.9,94,73,42,30.07,29.90,5,0,8,0.00
2013-9-8,93.7,77.4,65.1,72.1,68.1,64.8,99,76,43,30.07,29.91,4,0,4,0.00
2013-9-9,95.0,79.4,66.7,72.8,68.6,62.9,99,73,39,30.07,29.90,2,0,5,0.00
2013-9-10,93.6,78.9,67.8,74.0,69.3,66.4,99,76,45,30.07,29.90,4,0,8,0.00
2013-9-11,92.8,77.2,64.6,73.0,66.7,58.2,99,74,34,30.07,29.90,4,0,6,0.00
2013-9-12,92.8,78.6,67.5,72.3,68.9,66.3,99,75,45,30.07,29.92,4,0,6,0.00
2013-9-13,95.0,79.6,70.0,73.0,67.9,60.5,96,71,38,30.07,29.91,4,0,6,0.00
2013-9-14,87.1,74.1,64.6,65.8,59.9,52.2,84,62,44,30.08,29.90,3,1,6,0.00
2013-9-15,88.2,76.2,65.7,73.9,68.1,62.0,89,77,56,30.07,29.90,3,0,5,0.00
2013-9-16,90.5,80.1,73.2,78.0,73.4,68.7,99,82,51,30.07,29.91,3,0,6,0.09
2013-9-17,82.9,73.7,66.6,72.7,64.5,60.0,99,75,49,30.07,29.90,4,1,8,0.00
2013-9-18,82.6,69.7,61.5,61.7,58.5,55.9,87,69,43,30.07,29.90,4,1,7,0.00
2013-9-19,87.4,71.1,57.4,65.2,60.4,56.8,99,73,42,30.07,29.89,3,0,4,0.00
2013-9-20,90.5,75.0,62.8,70.4,65.5,60.7,98,75,44,29.94,29.81,2,0,5,0.00
2013-9-21,82.8,74.3,67.3,71.5,68.9,66.3,99,84,62,29.84,29.79,4,1,11,0.21
2013-9-22,84.6,72.1,63.5,70.9,63.3,58.8,99,77,44,29.84,29.78,4,0,6,0.01
2013-9-23,84.0,70.6,59.9,64.8,59.7,57.3,98,71,44,30.08,29.80,4,0,5,0.00
2013-9-24,80.8,70.7,61.5,63.2,60.6,58.4,94,72,50,30.07,29.90,4,0,6,0.00
2013-9-25,76.5,67.8,63.3,65.4,63.0,60.4,99,86,59,30.07,29.92,2,0,6,0.51
2013-9-26,79.0,67.9,61.2,65.6,62.6,59.7,99,85,55,30.07,29.90,2,0,4,0.01
2013-9-27,80.2,67.3,55.8,60.4,57.6,55.2,99,74,44,30.12,29.88,4,1,8,0.00
2013-9-28,79.2,66.0,55.2,58.2,55.8,53.4,96,72,44,30.15,29.92,3,1,8,0.00
2013-9-29,79.0,65.8,56.7,61.8,56.8,54.2,94,75,47,30.15,29.93,3,1,6,0.00
2013-9-30,77.4,63.6,51.6,61.3,55.4,51.1,99,78,46,30.22,29.97,4,0,6,0.00
2013-10-1,84.2,66.9,53.4,64.5,57.7,53.0,99,76,41,30.21,29.91,3,0,5,0.00
2013-10-2,87.8,70.5,57.6,68.1,61.5,57.0,99,77,41,30.10,29.82,3,0,4,0.00
2013-10-3,88.0,71.0,59.5,68.3,62.2,58.4,99,77,41,30.05,29.83,4,0,5,0.00
2013-10-4,88.2,73.3,62.4,73.5,65.5,62.1,99,79,44,30.07,29.91,3,0,4,0.00
2013-10-5,91.4,74.3,61.2,74.4,64.3,60.9,99,75,40,30.07,29.90,4,0,5,0.00
2013-10-6,87.6,74.3,62.4,72.7,66.6,62.1,99,79,49,30.07,29.91,4,1,7,0.00
2013-10-7,78.8,75.0,69.6,76.5,73.8,69.3,99,96,86,30.07,29.91,3,0,6,0.63
2013-10-8,69.4,62.8,58.6,69.1,58.1,52.8,99,85,69,30.13,30.00,4,1,9,0.07
2013-10-9,77.4,64.3,57.0,56.5,54.0,51.1,88,71,46,30.22,29.98,3,1,6,0.00
2013-10-10,80.8,63.2,50.4,58.6,54.2,49.5,98,76,41,30.24,29.98,4,0,8,0.00
2013-10-11,83.8,68.5,56.5,66.8,59.0,55.2,96,75,44,30.16,29.87,4,0,8,0.00
2013-10-12,85.1,69.0,55.8,70.5,61.8,55.5,99,80,49,30.11,29.88,2,0,4,0.00
2013-10-13,77.5,70.3,65.5,66.2,64.4,63.0,93,82,66,30.06,29.83,2,0,6,0.00
2013-10-14,71.1,67.0,64.8,65.7,63.8,62.5,99,90,78,30.07,29.93,3,1,8,0.01
2013-10-15,77.2,66.7,59.2,63.3,59.2,56.5,95,79,51,30.07,29.93,3,0,6,0.00
2013-10-16,78.3,60.6,54.9,66.6,57.6,54.5,99,91,60,30.17,30.02,3,0,4,0.00
2013-10-22,68.9,65.0,59.2,62.8,61.3,58.9,99,88,74,29.91,29.83,2,0,3,0.00
2013-10-23,71.1,61.3,47.1,62.5,48.6,29.4,99,69,22,30.03,29.88,6,1,11,0.00
2013-10-24,69.4,50.6,35.8,45.2,38.8,34.2,96,69,31,30.28,30.03,4,0,8,0.00
2013-10-25,61.2,50.0,40.6,45.2,39.6,34.8,96,70,39,30.15,30.04,4,0,6,0.00
2013-10-26,64.2,48.7,35.4,40.8,34.7,29.5,85,62,29,30.24,30.06,3,0,5,0.00
2013-10-27,74.5,56.2,42.6,55.4,47.0,39.3,91,74,42,30.18,29.97,3,0,7,0.00
2013-10-28,73.0,61.8,54.3,60.7,56.5,52.4,99,84,56,30.06,29.87,2,0,4,0.00
2013-10-29,77.7,61.3,50.7,64.8,54.8,50.3,99,82,48,29.98,29.83,4,0,6,0.00
2013-10-30,79.9,64.1,52.5,62.6,55.9,52.2,99,78,46,29.97,29.77,3,0,6,0.00
2013-10-31,79.2,67.7,55.0,68.2,61.2,54.7,99,81,53,29.89,29.74,4,1,9,0.00
2013-11-1,75.4,67.5,62.8,69.5,65.3,62.5,99,93,81,29.90,29.75,6,1,8,0.77
2013-11-2,73.9,61.3,49.1,63.4,53.4,45.6,99,79,38,29.94,29.80,5,1,8,0.01
2013-11-3,68.5,52.4,41.0,48.5,42.8,39.2,99,74,36,30.24,29.94,4,0,6,0.00
2013-11-4,65.8,51.4,42.4,43.5,38.3,32.4,90,64,30,30.15,30.02,4,1,8,0.00
2013-11-5,69.8,54.1,41.4,53.5,45.6,34.4,89,74,52,30.17,29.99,4,1,7,0.00
2013-11-6,78.1,61.0,51.1,62.2,55.3,49.7,99,83,57,30.09,29.88,3,1,7,0.00
2013-11-7,75.6,61.6,51.4,64.7,55.0,36.2,99,81,47,29.99,29.81,5,1,9,0.00
2013-11-8,63.7,49.2,39.6,38.2,35.9,30.5,90,64,29,30.06,29.88,4,1,6,0.00
2013-11-9,65.5,49.5,35.6,43.9,37.2,25.2,94,68,24,30.18,30.03,3,0,4,0.00
2013-11-10,72.7,54.6,46.2,46.2,42.7,33.4,88,68,27,30.16,29.98,3,0,5,0.00
2013-11-11,70.9,53.0,41.2,44.3,38.0,33.0,91,60,31,30.14,30.00,4,1,6,0.00
2013-11-12,74.8,52.1,37.9,46.9,39.0,29.7,98,67,30,30.18,30.00,6,1,11,0.00
2013-11-13,54.1,38.2,28.0,29.0,21.1,13.4,76,54,23,30.20,30.08,4,1,8,0.00
2013-11-14,68.5,41.7,24.4,34.6,23.4,6.7,91,59,11,30.25,30.09,4,0,6,0.00
2013-11-15,63.9,53.3,37.9,55.7,46.9,33.6,94,79,66,30.25,30.05,2,0,4,0.00
2013-11-16,78.4,62.4,52.5,61.3,57.3,51.7,99,85,55,30.12,29.89,3,0,4,0.00
2013-11-17,72.7,63.8,52.9,69.1,62.1,52.3,99,95,78,29.98,29.81,3,0,4,0.00
2013-11-18,86.4,72.1,53.4,71.9,57.1,34.0,99,65,30,29.87,29.66,6,1,8,0.01
2013-11-19,67.1,53.2,43.2,36.5,29.9,22.6,74,44,20,30.03,29.87,5,1,8,0.00
2013-11-20,59.2,50.2,40.8,41.6,35.8,29.6,74,58,45,30.16,29.87,4,1,9,0.00
2013-11-21,60.4,53.9,49.1,51.2,46.5,40.6,93,76,66,30.07,29.96,2,1,5,0.00
2013-11-22,76.1,61.0,50.9,63.7,56.8,49.2,99,87,64,30.08,29.87,3,0,5,0.00
2013-11-23,64.4,60.6,50.7,62.7,56.2,27.1,99,87,36,29.97,29.86,3,0,5,0.01
2013-11-24,53.8,41.7,30.7,28.7,19.3,11.9,60,42,21,30.14,29.97,4,1,8,0.01
2013-11-25,56.1,39.7,27.0,29.6,16.8,7.3,55,40,24,30.25,29.98,4,1,7,0.00
2013-11-26,68.7,53.7,42.4,68.4,50.1,29.0,99,88,54,30.19,29.93,9,1,18,0.61
2013-11-27,51.8,42.6,28.6,51.0,41.0,27.6,99,94,75,30.14,29.95,4,1,9,0.12
2013-11-28,55.0,34.8,23.7,33.6,27.9,23.5,99,79,39,30.25,29.99,4,0,6,0.00
2013-11-29,63.3,41.2,26.2,45.6,30.6,26.0,99,72,27,30.23,29.97,3,0,4,0.00
2013-11-30,53.1,43.5,32.9,37.3,32.5,27.4,80,66,47,30.21,29.87,3,1,7,0.00
2013-12-1,61.0,48.7,42.1,46.5,41.6,36.7,96,77,59,30.11,29.88,2,0,3,0.00
2013-12-2,65.3,52.0,45.3,48.2,45.0,42.2,98,80,47,30.09,29.97,4,0,8,0.00
2013-12-3,63.1,55.6,48.9,58.0,52.4,46.1,99,89,76,30.09,29.97,4,1,9,0.41
2013-12-4,72.3,62.0,57.0,66.1,60.7,56.7,99,96,79,30.05,29.88,3,0,5,0.21
2013-12-5,67.8,65.2,62.6,66.8,64.6,62.3,99,98,90,29.95,29.78,4,1,7,0.12
2013-12-6,79.3,70.5,63.0,68.3,65.4,62.7,99,85,66,29.88,29.70,4,1,11,0.00
2013-12-7,69.1,60.8,45.5,67.2,60.0,45.2,99,97,87,29.92,29.80,4,1,8,0.33
2013-12-8,45.5,43.0,40.5,45.2,42.7,40.2,99,99,99,30.12,29.93,2,0,7,0.17
2013-12-9,55.4,48.0,39.9,55.1,47.7,39.7,99,99,99,30.19,29.98,3,0,4,0.18
2013-12-10,66.7,55.8,38.1,66.4,52.5,34.3,99,90,61,30.09,29.92,9,2,15,0.06
2013-12-11,60.3,42.0,29.1,38.2,33.5,28.3,99,75,38,30.15,29.97,4,0,6,0.00
2013-12-12,59.5,40.8,30.2,40.8,30.2,22.4,99,72,26,30.20,29.98,3,0,6,0.00
2013-12-13,61.7,42.7,27.5,39.4,29.2,20.2,96,65,21,30.24,29.98,4,1,8,0.00
2013-12-14,63.5,54.1,46.9,63.2,51.0,39.1,99,90,74,30.19,29.97,7,1,12,1.17
2013-12-15,56.1,49.2,37.0,53.1,43.9,33.2,99,83,58,30.10,29.98,8,2,14,0.07
2013-12-16,63.7,43.7,28.8,41.1,33.8,28.5,99,73,32,30.20,29.98,5,1,9,0.00
2013-12-17,67.1,52.0,39.9,36.6,34.1,31.7,77,53,30,30.17,29.98,7,2,11,0.00
2013-12-18,59.9,45.3,34.0,36.4,29.2,19.4,83,57,24,30.14,29.98,4,1,8,0.00
2013-12-19,66.2,46.8,30.4,49.1,34.3,19.6,93,67,20,30.20,29.96,4,0,7,0.00
2013-12-20,70.3,55.9,42.6,57.2,51.0,42.4,99,85,58,30.11,29.90,5,0,10,0.00
2013-12-21,81.0,65.9,50.0,67.4,59.6,47.5,99,82,54,30.04,29.78,8,2,13,0.00
2013-12-22,77.9,71.1,65.3,69.4,67.6,65.0,99,89,72,29.83,29.64,7,2,11,0.33
2013-12-23,69.3,61.9,52.3,69.0,61.3,49.8,99,98,92,29.85,29.67,6,1,13,0.69
2013-12-24,55.0,44.9,36.0,49.8,35.2,24.5,99,72,32,30.21,29.85,7,2,11,0.00
2013-12-25,48.2,38.2,28.0,26.1,22.2,17.7,70,54,36,30.43,30.21,4,1,6,0.00
2013-12-26,52.9,42.7,35.1,40.3,34.1,23.7,97,73,49,30.44,30.37,3,0,4,0.00
2013-12-27,58.5,42.4,34.0,37.2,31.6,26.4,99,69,34,30.42,30.01,3,0,5,0.00
2013-12-28,55.9,43.0,30.7,44.3,35.2,29.5,99,77,41,30.23,29.97,2,0,5,0.21
2013-12-29,63.0,52.3,44.1,62.7,50.1,43.8,99,93,71,30.15,29.96,7,2,11,1.26
2013-12-30,56.7,48.4,39.2,47.4,43.9,38.9,99,85,66,30.12,29.98,4,1,6,0.00
2013-12-31,58.1,48.0,38.3,46.1,39.6,31.7,89,75,39,30.12,29.98,4,1,8,0.00
2014-1-1,52.0,44.6,35.8,43.7,39.3,34.1,96,83,66,30.18,29.87,2,0,3,0.00
2014-1-2,52.0,46.9,35.8,51.7,45.4,28.1,99,95,74,30.12,29.87,13,2,21,0.45